Weather History for Montrose, CO

Change the Weather History Date:

Wednesday, January 19, 2011

  Actual Average Record
Temperature  
Mean Temperature 34 °F 27 °F  
Max Temperature 39 °F 39 °F 55 °F (2000)
Min Temperature 26 °F 15 °F -2 °F (2008)
Degree Days  
Heating Degree Days 32 38  
Month to date heating degree days 750  
Since 1 July heating degree days 3358  
Cooling Degree Days 0 0  
Month to date cooling degree days 0  
Year to date cooling degree days 0  
Moisture  
Dew Point 26 °F    
Average Humidity 75    
Maximum Humidity 89    
Minimum Humidity 61    
Precipitation  
Precipitation 0.00 in 0.02 in 0.03 in (2006)
Month to date precipitation 0.42  
Year to date precipitation 0.42  
Sea Level Pressure  
Sea Level Pressure 29.91 in    
Wind  
Wind Speed 5 mph (WNW)    
Max Wind Speed 15 mph    
Max Gust Speed 24 mph    
Visibility 10 miles    
Events Snow    
T = Trace of Precipitation, MM = Missing Value Source: NWS Daily Summary

Daily Weather History Graph

Daily Weather History Graph

Search for Another Location

Airport:

Trip Planner

Search our weather history database for the weather conditions in past years. The results will help you decide how hot, cold, wet, or windy it might be!

Date:

Astronomy

Jan. 19, 2011 Rise Set
Actual Time 7:26 AM MST 5:18 PM MST
Civil Twilight 6:57 AM MST 5:47 PM MST
Nautical Twilight 6:24 AM MST 6:20 PM MST
Astronomical Twilight 5:53 AM MST 6:51 PM MST
Moon 5:30 PM MST (1/19) 7:07 AM MST (1/19)
Length of Visible Light 10h 50m
Length of Day
9h 52m
Full, 100% of the Moon is Illuminated
Jan 19
Full
Jan 19
Full
Jan 26
Last Quarter
Feb 2
New
Feb 11
First Quarter

Hourly Weather History & Observations

Time (MST) Temp. Windchill Dew Point Humidity Pressure Visibility Wind Dir Wind Speed Gust Speed Precip Events Conditions
12:53 AM 32.0 °F 27.5 °F 28.0 °F 85% 29.90 in 10.0 mi South 4.6 mph - N/A   Overcast
1:53 AM 32.0 °F 28.7 °F 28.0 °F 85% 29.88 in 10.0 mi SSE 3.5 mph - N/A   Overcast
2:53 AM 32.0 °F - 27.0 °F 82% 29.86 in 10.0 mi Calm Calm - N/A   Overcast
3:53 AM 30.0 °F - 26.1 °F 85% 29.84 in 10.0 mi Calm Calm - N/A   Partly Cloudy
4:53 AM 28.9 °F 21.9 °F 26.1 °F 89% 29.81 in 10.0 mi SSE 6.9 mph - N/A   Clear
5:53 AM 30.9 °F 25.2 °F 26.1 °F 82% 29.79 in 10.0 mi SSE 5.8 mph - N/A   Overcast
6:53 AM 30.9 °F 26.2 °F 26.1 °F 82% 29.80 in 10.0 mi West 4.6 mph - N/A   Overcast
7:53 AM 30.9 °F 27.5 °F 25.0 °F 79% 29.82 in 10.0 mi NW 3.5 mph - N/A   Overcast
8:53 AM 30.9 °F 27.5 °F 26.1 °F 82% 29.84 in 10.0 mi ESE 3.5 mph - N/A   Overcast
9:53 AM 32.0 °F 26.4 °F 27.0 °F 82% 29.86 in 10.0 mi SSE 5.8 mph - N/A   Overcast
10:53 AM 37.0 °F 32.4 °F 27.0 °F 67% 29.84 in 10.0 mi ENE 5.8 mph - N/A   Mostly Cloudy
11:53 AM 37.9 °F - 28.9 °F 70% 29.82 in 10.0 mi Calm Calm - N/A   Mostly Cloudy
12:53 PM 39.9 °F - 30.0 °F 68% 29.80 in 10.0 mi Calm Calm - N/A   Scattered Clouds
2:06 PM 37.4 °F 32.1 °F 30.2 °F 75% 29.84 in 10.0 mi North 6.9 mph - 0.00 in Snow Light Snow
2:41 PM 35.6 °F 28.6 °F 28.4 °F 75% 29.87 in 10.0 mi NW 9.2 mph - 0.00 in   Mostly Cloudy
2:53 PM 36.0 °F 26.7 °F 26.1 °F 67% 29.86 in 10.0 mi NW 15.0 mph 19.6 mph 0.00 in   Overcast
3:22 PM 33.8 °F 26.4 °F 28.4 °F 81% 29.89 in 6.0 mi WNW 9.2 mph - 0.00 in Snow Light Snow
3:33 PM 35.6 °F 27.1 °F 28.4 °F 75% 29.90 in 10.0 mi West 12.7 mph - 0.00 in   Overcast
3:53 PM 35.1 °F 26.9 °F 27.0 °F 72% 29.89 in 10.0 mi West 11.5 mph - 0.00 in   Overcast
4:53 PM 36.0 °F 29.0 °F 25.0 °F 64% 29.91 in 10.0 mi West 9.2 mph - N/A   Overcast
5:53 PM 35.1 °F 31.0 °F 24.1 °F 64% 29.94 in 10.0 mi Variable 4.6 mph - N/A   Overcast
6:53 PM 32.0 °F - 26.1 °F 79% 29.99 in 10.0 mi Calm Calm - N/A   Overcast
7:53 PM 33.1 °F 23.4 °F 25.0 °F 72% 30.03 in 9.0 mi WNW 13.8 mph - 0.00 in   Overcast
8:53 PM 30.9 °F 25.2 °F 23.0 °F 72% 30.07 in 10.0 mi North 5.8 mph - N/A   Mostly Cloudy
9:53 PM 30.0 °F 22.4 °F 21.0 °F 69% 30.13 in 10.0 mi NNW 8.1 mph - N/A   Overcast
10:24 PM 30.2 °F 20.2 °F 19.4 °F 64% 30.13 in 3.0 mi NW 12.7 mph 24.2 mph 0.00 in Snow Light Snow
10:53 PM 28.9 °F 21.9 °F 17.1 °F 61% 30.14 in 10.0 mi NNW 6.9 mph - 0.00 in   Mostly Cloudy
11:53 PM 26.1 °F - 19.0 °F 75% 30.15 in 10.0 mi Calm Calm - N/A   Mostly Cloudy